Flag for Germany Weather past 2 weeks in Greven, North Rhine-Westphalia, Germany

Now
57 °F

Passing clouds.


Feels Like: 57 °F
Forecast: 47 / 63 °F
Wind: 3 mph from Southwest

Location: Muenster / Osnabrueck

Current Time: Aug 23, 2014 at 7:36:19 PM

Latest Report: Aug 23, 2014 at 7:20 PM


Visibility: N/A

Pressure: 29.92 "Hg

Humidity: 77%

Dew point: 50 °F

Location of GrevenLocation

Historic Weather in Greven — Graph

°F

Greven temperature yesterday

Maximum temperature yesterday: 66 °F (at 1:20 PM)
Minimum temperature yesterday: 50 °F (at 11:20 PM)
Average temperature yesterday: 57 °F

Past Weeks' High & Low Weather Summary

 TemperatureHumidityPressure
High79 °F (Aug 10, 2:20 PM)100% (Aug 13, 2:20 AM)30.04 "Hg (Aug 13, 2:20 AM)
Low43 °F (Aug 21, 5:50 AM)43% (Aug 11, 3:20 PM)29.53 "Hg (Aug 10, 8:20 PM)
Average60 °F79%29.83 "Hg
* Reported Aug 8 6:20 PM — Aug 23 6:20 PM, Greven, Weather by CustomWeather, © 2014

Note: Actual official high and low records may vary slightly from our data, if they occured in-between our weather recording intervals... More about our weather records

Advertising

Greven weather history for previous 24 hours

 ConditionsComfort  
Time TempWeatherWind HumidityBarometerVisibility
6:20 PM
Aug 23
59 °FPartly sunny.2 mph77%29.92 "HgN/A
5:50 PM55 °FThundershowers. Partly sunny.3 mph82%29.92 "HgN/A
5:20 PM59 °FSprinkles. Broken clouds.9 mph68%29.92 "HgN/A
4:50 PM61 °FPartly sunny.8 mph72%29.89 "HgN/A
4:20 PM61 °FPartly sunny.8 mph72%29.89 "HgN/A
3:50 PM59 °FPartly sunny.6 mph77%29.89 "HgN/A
3:20 PM59 °FPartly sunny.6 mph77%29.89 "HgN/A
2:50 PM55 °FPartly sunny.6 mph82%29.92 "HgN/A
2:20 PM57 °FSprinkles. Broken clouds.6 mph77%29.92 "HgN/A
1:50 PM55 °FBroken clouds.5 mph82%29.89 "HgN/A
1:20 PM54 °FSprinkles. Broken clouds.10 mph82%29.89 "HgN/A
12:50 PM59 °FBroken clouds.7 mph77%29.89 "HgN/A
12:20 PM59 °FBroken clouds.7 mph77%29.89 "HgN/A
11:50 AM59 °FBroken clouds.7 mph77%29.89 "HgN/A
11:20 AM57 °FBroken clouds.7 mph82%29.89 "HgN/A
10:50 AM57 °FBroken clouds.7 mph82%29.89 "HgN/A
10:20 AM57 °FFog.5 mph82%29.89 "Hg3 mi
9:50 AM55 °FFog.3 mph88%29.89 "Hg2 mi
9:20 AM54 °FFog.5 mph94%29.89 "Hg1 mi
8:50 AM52 °FFog.5 mph100%29.89 "Hg1 mi
8:20 AM50 °FCool.5 mph100%29.89 "Hg1 mi
7:50 AM50 °FCool.5 mph100%29.89 "Hg1 mi
7:20 AM46 °FCool.3 mph100%29.89 "Hg1 mi
6:50 AM46 °FSleet. Overcast.3 mph100%29.89 "Hg1 mi
6:20 AM46 °FSleet. Overcast.2 mph100%29.89 "Hg1 mi
5:50 AM48 °FSleet. Overcast.3 mph100%29.86 "Hg1 mi
5:20 AM50 °FCool.5 mph100%29.86 "Hg2 mi
4:50 AM48 °FSleet. Overcast.3 mph100%29.89 "Hg1 mi
4:20 AM50 °FSleet. Overcast.3 mph100%29.89 "Hg2 mi
3:50 AM52 °FCool.3 mph100%29.89 "Hg2 mi
3:20 AM52 °FCool.3 mph100%29.89 "Hg2 mi
2:50 AM52 °FCool.3 mph100%29.89 "Hg4 mi
2:20 AM50 °FCool.2 mph100%29.86 "Hg4 mi
1:50 AM48 °FCool.2 mph100%29.86 "Hg4 mi
1:20 AM48 °FCool.2 mph100%29.89 "Hg2 mi
12:50 AM48 °FSleet. Overcast.1 mph100%29.89 "Hg2 mi
12:20 AM50 °FCool.No wind100%29.86 "HgN/A
11:50 PM
Aug 22
50 °FFog.2 mph94%29.86 "HgN/A
11:20 PM50 °FClear.3 mph94%29.86 "Hg10 mi
10:50 PM54 °FClear.7 mph88%29.86 "Hg10 mi
10:20 PM54 °FClear.5 mph94%29.86 "Hg10 mi
9:50 PM54 °FPassing clouds.5 mph88%29.86 "HgN/A
9:20 PM54 °FSprinkles. Broken clouds.7 mph88%29.86 "HgN/A
8:50 PM54 °FRain showers. Partly sunny.12 mph88%29.86 "Hg4 mi
8:20 PM54 °FSprinkles. Broken clouds.8 mph82%29.86 "HgN/A
7:50 PM54 °FSprinkles. Partly sunny.13 mph88%29.86 "Hg5 mi
7:20 PM57 °FLight rain. More clouds than sun.13 mph88%29.86 "HgN/A
Weather by CustomWeather, © 2014

See weather overviewHow to use our weather pages